Home > Weather > Columbia > Past weeks

Flag for USA Weather for the Past 2 Weeks in Columbia, South Carolina, USA

Now
85 °F

Sunny.


Feels Like: 84 °F
Forecast: 65 / 91 °F
Wind: No wind

Location: Columbia Owens Downtown Airport

Current Time: Apr 29, 2016 at 12:51:57 PM

Latest Report: Apr 29, 2016 at 11:53 AM


Visibility: 10 mi

Pressure: 29.96 "Hg

Humidity: 37%

Dew Point: 56 °F

Location of ColumbiaLocation

Historic Weather in Columbia — Graph

°F

Columbia Temperature Yesterday

Maximum temperature yesterday: 88 °F (at 5:53 PM)
Minimum temperature yesterday: 67 °F (at 5:53 AM)
Average temperature yesterday: 77 °F

High & Low Weather Summary for the Past Weeks

 TemperatureHumidityPressure
High89 °F (Apr 27, 3:53 PM)94% (Apr 23, 2:02 AM)30.43 "Hg (Apr 23, 2:02 AM)
Low44 °F (Apr 18, 6:53 AM)15% (Apr 17, 3:53 PM)29.81 "Hg (Apr 27, 6:53 PM)
Average69 °F56%30.09 "Hg
* Reported Apr 14 11:53 AM — Apr 29 11:53 AM, Columbia, Weather by CustomWeather, © 2016

Note: Actual official high and low records may vary slightly from our data, if they occured in-between our weather recording intervals... More about our weather records

Advertising

Columbia Weather History for the Previous 24 Hours

Scroll right to see more
 ConditionsComfort  
Time TempWeatherWind HumidityBarometerVisibility
11:53 AM
Fri, Apr 29
85 °FSunny.No wind37%29.96 "Hg10 mi
10:53 AM83 °FSunny.3 mph41%29.97 "Hg10 mi
9:53 AM79 °FSunny.6 mph50%29.98 "Hg10 mi
8:53 AM75 °FSunny.3 mph60%29.99 "Hg10 mi
7:53 AM69 °FFog.No wind87%29.98 "Hg6 mi
6:53 AM65 °FFog.No wind91%29.96 "Hg5 mi
5:53 AM66 °FClear.No wind90%29.94 "Hg7 mi
4:53 AM67 °FClear.No wind90%29.92 "Hg8 mi
3:53 AM70 °FClear.No wind84%29.90 "Hg10 mi
2:53 AM74 °FClear.3 mph76%29.89 "Hg10 mi
1:53 AM73 °FClear.5 mph81%29.90 "Hg10 mi
12:53 AM73 °FClear.No wind84%29.91 "Hg10 mi
11:53 PM
Thu, Apr 28
74 °FClear.5 mph79%29.90 "Hg10 mi
10:53 PM76 °FClear.6 mph72%29.90 "Hg10 mi
9:53 PM77 °FClear.3 mph69%29.90 "Hg10 mi
8:53 PM81 °FSunny.6 mph58%29.88 "Hg10 mi
7:53 PM83 °FPassing clouds.7 mph53%29.86 "Hg10 mi
6:53 PM85 °FPassing clouds.8 mph48%29.85 "Hg10 mi
5:53 PM88 °FPassing clouds.10 mph45%29.85 "Hg10 mi
4:53 PM87 °FPassing clouds.13 mph46%29.86 "Hg10 mi
3:53 PM86 °FPassing clouds.10 mph48%29.88 "Hg10 mi
2:53 PM87 °FPassing clouds.9 mph46%29.90 "Hg10 mi
1:53 PM83 °FScattered clouds.7 mph55%29.92 "Hg10 mi
12:53 PM81 °FScattered clouds.12 mph60%29.95 "Hg10 mi
Weather by CustomWeather, © 2016

See weather overviewHow to use our weather pages